Location: Laas
(43.4693°N, 0.3073°E)
Time: 15:53:53
(UTC+00:00)

Cosmos 1400 Rocket - Pass Details

Date: 25 October 2020
Orbit: 521 x 568 km, 81.2° (Epoch: 24 November)

Event Time Altitude Azimuth Distance (km) Brightness Sun altitude
Rises 17:29:30 0° 156° (SSE) 2,755 6.3 -6.1°
Reaches altitude 10° 17:32:02 10° 141° (SE) 1,861 5.2 -6.6°
Maximum altitude 17:35:13 22° 90° (E) 1,259 4.1 -7.2°
Drops below altitude 10° 17:38:25 10° 39° (NE) 1,862 5.1 -7.7°
Sets 17:40:56 0° 25° (NNE) 2,757 6.1 -8.2°
